Weather WX

World > North America > United States > Ohio

Marysville, Ohio Regional Weather

Lat: 40.24N, Lon: 83.37W
Wx Zone: OHZ045
Warning FLW WEATHER ALERT - FLASH FLOOD WATCH (More Info. Click Here) Warning
Feedback

Marysville, OH Regional Weather

Expires:201906201200;;781882
ASUS41 KCLE 201112
RWRCLE
OHIO REGIONAL WEATHER ROUNDUP
NATIONAL WEATHER SERVICE WILMINGTON, OH
700 AM EDT THU JUN 20 2019

NOTE: "FAIR" INDICATES FEW OR NO CLOUDS BELOW 12,000 FEET WITH NO
SIGNIFICANT WEATHER AND/OR OBSTRUCTIONS TO VISIBILITY.


OHZ036-037-039>041-045>050-054>059-063>069-073>076-082>088-201200-
  CENTRAL AND SOUTHEAST OHIO
  
CITY           SKY/WX    TMP DP  RH WIND       PRES   REMARKS
COLUMBUS       CLOUDY    68  66  93 S8        29.59S                  
OSU AIRPORT    CLOUDY    68  67  96 S10       29.60R FOG              
BOLTON FIELD   CLOUDY    68  67  99 SW13      29.61R FOG              
RICKENBACK AFB CLOUDY    67  67 100 SW6       29.60R                  
NEWARK         CLOUDY    69  66  90 S5        29.60S                  
MARION         CLOUDY    69  66  90 S7        29.59S FOG              
LANCASTER      CLOUDY    68  66  93 S5        29.61S                  
ZANESVILLE     CLOUDY    68  65  90 S7        29.61S                  
NEW PHILLY     CLOUDY    68  66  93 VRB6      29.60S                  
$$
  

SKY/WX - Weather  TMP - Temperature  DP - Dew Point  RH - Relative Humidity
WIND - Wind Direction/Speed PRES - Barometric Pressure VSB - Visibility
WCI - Wind Chill Index E13G22 Wind - East Wind 13 mph/Gusts of 22 mph